Hourly Weather Barsukovo

Today, 18 April, Sunday

Time Temperature Precipitation Wind Pressure Humidity
00:00 +5°C° 0 mm 2 mps 756 mmHg 65%
01:00 +5°C° 0 mm 2 mps 755 mmHg 67%
02:00 +4°C° 0 mm 2 mps 755 mmHg 69%
03:00 +4°C° 0 mm 2 mps 755 mmHg 70%
04:00 +4°C° 0 mm 2 mps 755 mmHg 72%
05:00 +4°C° 0 mm 2 mps 755 mmHg 71%
06:00 +5°C° 0 mm 1 mps 755 mmHg 71%
07:00 +6°C° 0 mm 1 mps 755 mmHg 71%
08:00 +6°C° 0 mm 2 mps 755 mmHg 65%
09:00 +8°C° 0 mm 3 mps 755 mmHg 58%
10:00 +10°C° 0 mm 3 mps 755 mmHg 52%
11:00 +10°C° 0 mm 4 mps 755 mmHg 51%
12:00 +10°C° 0 mm 5 mps 755 mmHg 50%
13:00 +10°C° 0 mm 6 mps 756 mmHg 49%
14:00 +9°C° 0 mm 6 mps 756 mmHg 48%
15:00 +9°C° 0 mm 6 mps 756 mmHg 47%
16:00 +8°C° 0 mm 6 mps 757 mmHg 47%
17:00 +7°C° 0 mm 6 mps 757 mmHg 45%
18:00 +5°C° 0 mm 6 mps 757 mmHg 42%
19:00 +6°C° 0 mm 5 mps 757 mmHg 40%
20:00 +4°C° 0 mm 6 mps 758 mmHg 45%
21:00 +3°C° 0 mm 6 mps 758 mmHg 50%
22:00 +2°C° 0 mm 7 mps 759 mmHg 54%
23:00 0°C° 0 mm 7 mps 759 mmHg 54%

Tomorrow, 19 April, Monday

Time Temperature Precipitation Wind Pressure Humidity
00:00 -1°C° 0 mm 7 mps 760 mmHg 53%
01:00 -1°C° 0 mm 7 mps 760 mmHg 52%
02:00 -2°C° 0 mm 7 mps 760 mmHg 52%
03:00 -3°C° 0 mm 7 mps 761 mmHg 52%
04:00 -3°C° 0 mm 6 mps 761 mmHg 51%
05:00 -3°C° 0 mm 7 mps 761 mmHg 50%
06:00 -3°C° 0 mm 7 mps 761 mmHg 48%
07:00 -3°C° 0 mm 7 mps 762 mmHg 47%
08:00 -2°C° 0 mm 8 mps 762 mmHg 41%
09:00 -1°C° 0 mm 8 mps 762 mmHg 36%
10:00 0°C° 0 mm 8 mps 762 mmHg 30%
11:00 +1°C° 0 mm 8 mps 762 mmHg 29%
12:00 +2°C° 0 mm 8 mps 762 mmHg 27%
13:00 +4°C° 0 mm 7 mps 762 mmHg 25%
14:00 +4°C° 0 mm 7 mps 762 mmHg 25%
15:00 +4°C° 0 mm 7 mps 762 mmHg 25%
16:00 +5°C° 0 mm 7 mps 762 mmHg 25%
17:00 +4°C° 0 mm 6 mps 762 mmHg 28%
18:00 +3°C° 0 mm 6 mps 762 mmHg 31%
19:00 +3°C° 0 mm 6 mps 763 mmHg 34%
20:00 +2°C° 0 mm 5 mps 763 mmHg 37%
21:00 +1°C° 0 mm 5 mps 763 mmHg 41%
22:00 0°C° 0 mm 5 mps 764 mmHg 44%
23:00 -1°C° 0 mm 4 mps 764 mmHg 46%

Day after tomorrow, 20 April, Tuesday

Time Temperature Precipitation Wind Pressure Humidity
00:00 -1°C° 0 mm 4 mps 764 mmHg 48%
01:00 -2°C° 0 mm 4 mps 764 mmHg 50%
02:00 -2°C° 0 mm 4 mps 765 mmHg 52%
03:00 -2°C° 0 mm 3 mps 765 mmHg 54%
04:00 -2°C° 0 mm 3 mps 765 mmHg 56%
05:00 -1°C° 0 mm 3 mps 765 mmHg 53%
06:00 -1°C° 0 mm 3 mps 766 mmHg 49%
07:00 0°C° 0 mm 3 mps 766 mmHg 46%
08:00 +1°C° 0 mm 3 mps 766 mmHg 41%
09:00 +1°C° 0 mm 4 mps 766 mmHg 36%
10:00 +4°C° 0 mm 4 mps 766 mmHg 31%
11:00 +4°C° 0 mm 4 mps 766 mmHg 29%
12:00 +5°C° 0 mm 3 mps 766 mmHg 28%
13:00 +7°C° 0 mm 3 mps 766 mmHg 27%
14:00 +8°C° 0 mm 3 mps 765 mmHg 26%
15:00 +8°C° 0 mm 3 mps 765 mmHg 26%
16:00 +9°C° 0 mm 3 mps 764 mmHg 26%
17:00 +8°C° 0 mm 3 mps 764 mmHg 29%
18:00 +7°C° 0 mm 2 mps 764 mmHg 33%
19:00 +7°C° 0 mm 2 mps 764 mmHg 37%
20:00 +6°C° 0 mm 2 mps 764 mmHg 40%
21:00 +5°C° 0 mm 2 mps 764 mmHg 43%
22:00 +3°C° 0 mm 3 mps 764 mmHg 46%
23:00 +2°C° 0 mm 3 mps 764 mmHg 48%

21 April, Wednesday

Time Temperature Precipitation Wind Pressure Humidity
00:00 +2°C° 0 mm 3 mps 764 mmHg 50%
01:00 +1°C° 0 mm 3 mps 764 mmHg 52%
02:00 +2°C° 0 mm 2 mps 764 mmHg 53%
03:00 +1°C° 0 mm 2 mps 764 mmHg 54%
04:00 +1°C° 0 mm 2 mps 764 mmHg 55%
05:00 +2°C° 0 mm 2 mps 764 mmHg 53%
06:00 +2°C° 0 mm 2 mps 764 mmHg 52%
07:00 +3°C° 0 mm 2 mps 764 mmHg 50%
08:00 +4°C° 0 mm 3 mps 764 mmHg 44%
09:00 +5°C° 0 mm 3 mps 764 mmHg 38%
10:00 +7°C° 0 mm 4 mps 764 mmHg 32%
11:00 +8°C° 0 mm 4 mps 764 mmHg 30%
12:00 +9°C° 0 mm 5 mps 763 mmHg 28%
13:00 +10°C° 0 mm 5 mps 763 mmHg 26%
14:00 +12°C° 0 mm 5 mps 763 mmHg 26%
15:00 +11°C° 0 mm 6 mps 762 mmHg 26%
16:00 +13°C° 0 mm 6 mps 762 mmHg 26%
17:00 +12°C° 0 mm 5 mps 762 mmHg 29%
18:00 +10°C° 0 mm 5 mps 762 mmHg 33%
19:00 +10°C° 0 mm 4 mps 762 mmHg 37%
20:00 +8°C° 0 mm 4 mps 762 mmHg 40%
21:00 +7°C° 0 mm 4 mps 762 mmHg 44%
22:00 +7°C° 0 mm 3 mps 762 mmHg 48%
23:00 +5°C° 0 mm 3 mps 762 mmHg 48%

22 April, Thursday

Time Temperature Precipitation Wind Pressure Humidity
00:00 +5°C° 0 mm 4 mps 762 mmHg 49%
01:00 +5°C° 0 mm 4 mps 762 mmHg 49%
02:00 +4°C° 0 mm 4 mps 762 mmHg 50%
03:00 +4°C° 0 mm 4 mps 762 mmHg 52%
04:00 +3°C° 0 mm 4 mps 762 mmHg 53%
05:00 +4°C° 0 mm 4 mps 763 mmHg 53%
06:00 +4°C° 0 mm 4 mps 763 mmHg 54%
07:00 +4°C° 0 mm 4 mps 763 mmHg 54%
08:00 +6°C° 0 mm 5 mps 763 mmHg 50%
09:00 +7°C° 0 mm 5 mps 763 mmHg 46%
10:00 +8°C° 0 mm 6 mps 763 mmHg 43%
11:00 +9°C° 0 mm 6 mps 763 mmHg 39%
12:00 +10°C° 0 mm 6 mps 763 mmHg 36%
13:00 +11°C° 0 mm 6 mps 763 mmHg 33%
14:00 +11°C° 0 mm 6 mps 763 mmHg 33%
15:00 +11°C° 0 mm 6 mps 763 mmHg 33%
16:00 +11°C° 0 mm 7 mps 763 mmHg 33%
17:00 +11°C° 0 mm 6 mps 763 mmHg 36%
18:00 +10°C° 0 mm 5 mps 763 mmHg 39%
19:00 +10°C° 0 mm 4 mps 763 mmHg 42%
20:00 +10°C° 0 mm 3 mps 763 mmHg 49%
21:00 +9°C° 0 mm 2 mps 763 mmHg 55%
22:00 +8°C° 0 mm 2 mps 763 mmHg 62%
23:00 +7°C° 0 mm 2 mps 763 mmHg 64%

23 April, Friday

Time Temperature Precipitation Wind Pressure Humidity
00:00 +7°C° 0 mm 2 mps 764 mmHg 66%
01:00 +7°C° 0 mm 3 mps 764 mmHg 69%
02:00 +7°C° 0.3 mm 3 mps 764 mmHg 75%
03:00 +6°C° 0.3 mm 2 mps 764 mmHg 80%
04:00 +6°C° 0.3 mm 2 mps 764 mmHg 86%
05:00 +6°C° 0.1 mm 2 mps 764 mmHg 85%
06:00 +6°C° 0.1 mm 2 mps 764 mmHg 84%
07:00 +6°C° 0.1 mm 2 mps 764 mmHg 83%
08:00 +8°C° 0 mm 2 mps 764 mmHg 76%
09:00 +9°C° 0 mm 2 mps 764 mmHg 68%
10:00 +10°C° 0 mm 3 mps 763 mmHg 60%
11:00 +11°C° 0 mm 3 mps 763 mmHg 57%
12:00 +11°C° 0 mm 3 mps 763 mmHg 54%
13:00 +12°C° 0 mm 3 mps 763 mmHg 51%
14:00 +11°C° 0.1 mm 3 mps 763 mmHg 58%
15:00 +10°C° 0.1 mm 4 mps 763 mmHg 65%
16:00 +10°C° 0.1 mm 4 mps 763 mmHg 72%
17:00 +9°C° 0.1 mm 3 mps 763 mmHg 74%
18:00 +9°C° 0.1 mm 3 mps 763 mmHg 76%
19:00 +8°C° 0.1 mm 2 mps 763 mmHg 78%
20:00 +8°C° 0.1 mm 2 mps 763 mmHg 81%
21:00 +9°C° 0.1 mm 1 mps 763 mmHg 83%
22:00 +8°C° 0.1 mm 1 mps 763 mmHg 86%
23:00 +8°C° 0 mm 1 mps 762 mmHg 86%
Show more